Home   Weather   Springfield   Past weeks

Flag for USA Past Weather in Springfield, Missouri, USA — Yesterday and Last 2 Weeks

Now
43 °F

Overcast.


Feels Like: 37 °F
Forecast: 35 / 45 °F
Wind: 10 mph from Northwest

Location: Springfield Regional Airport

Current Time: Dec 4, 2016 at 12:43:26 pm

Latest Report: Dec 4, 2016 at 11:59 am


Visibility: 10 mi

Pressure: 29.99 "Hg

Humidity: 86%

Dew Point: 39 °F

Location of SpringfieldLocation

Past Weather in Springfield — Graph

°F

Springfield Temperature Yesterday

Maximum temperature yesterday: 48 °F (at 11:52 am)
Minimum temperature yesterday: 39 °F (at 9:52 pm)
Average temperature yesterday: 43 °F

High & Low Weather Summary for the Past Weeks

 TemperatureHumidityPressure
High62 °F (Nov 29, 12:52 pm)100% (Nov 26, 10:52 am)30.55 "Hg (Nov 26, 10:52 am)
Low25 °F (Nov 20, 3:52 am)23% (Nov 20, 3:52 pm)29.20 "Hg (Nov 28, 1:52 pm)
Average44 °F70%30.05 "Hg
* Reported Nov 19 10:52 am — Dec 4 10:52 am, Springfield, Weather by CustomWeather, © 2016

Note: Actual official high and low records may vary slightly from our data, if they occured in-between our weather recording intervals... More about our weather records

Advertising

Springfield Weather History for the Previous 24 Hours

Scroll right to see more
 ConditionsComfort  
Time TempWeatherWind HumidityBarometerVisibility
10:52 am
Sun, Dec 4
43 °FMostly cloudy.10 mph89%30.02 "Hg10 mi
9:52 am41 °FMostly cloudy.7 mph93%30.02 "Hg10 mi
8:52 am39 °FLight rain. Fog.6 mph93%30.02 "Hg6 mi
7:52 am38 °FLight rain. Fog.7 mph97%30.01 "Hg4 mi
7:00 am38 °FLight rain. Fog.6 mph97%29.98 "Hg5 mi
5:52 am38 °FLight rain. Fog.5 mph97%30.01 "Hg3 mi
4:52 am38 °FFog.10 mph97%30.00 "Hg5 mi
3:52 am38 °FLight rain. Fog.9 mph93%30.03 "Hg4 mi
2:52 am39 °FOvercast.13 mph89%30.04 "Hg9 mi
1:52 am39 °FOvercast.14 mph89%30.04 "Hg10 mi
12:52 am39 °FOvercast.14 mph89%30.07 "Hg10 mi
11:52 pm
Sat, Dec 3
39 °FLow clouds.10 mph89%30.09 "Hg10 mi
10:52 pm39 °FOvercast.13 mph89%30.10 "Hg7 mi
9:52 pm39 °FLight rain. Overcast.13 mph89%30.12 "Hg7 mi
8:52 pm40 °FLight rain. Overcast.12 mph83%30.13 "Hg10 mi
7:52 pm40 °FLight rain. Overcast.12 mph83%30.14 "Hg10 mi
6:52 pm40 °FLight rain. Overcast.13 mph83%30.14 "Hg10 mi
5:52 pm41 °FOvercast.13 mph80%30.18 "Hg10 mi
4:52 pm43 °FLight rain. Overcast.14 mph74%30.18 "Hg10 mi
3:52 pm44 °FLight rain. Overcast.10 mph68%30.19 "Hg10 mi
2:52 pm46 °FOvercast.10 mph58%30.19 "Hg10 mi
1:52 pm47 °FPartly sunny.16 mph52%30.19 "Hg10 mi
12:52 pm48 °FPassing clouds.14 mph50%30.22 "Hg10 mi
Weather by CustomWeather, © 2016

See weather overviewHow to use our weather pages